(°C)
(°C)
-1°
-1°
-2°
-3°
-4°
-5°
-5°
ONO
ONO
ONO
ONO
ONO
ONO
ONO
(km/h)
15-24
16-24
16-23
15-22
15-22
15-23
15-23
(mm)
0
0
0
0
0
0
0
(%)
7
0
0
1
7
13
7

Elevación del sol

/ -10.6°
sun-icon
UV 1
06:52
17:24
Gibosa creciente (167°)
17:19
05:06

METAR a 51.82°N 39.23°E (UUOO)

Hora Condiciones Temperatura/
Punto de condensación
Viento Visibilidad Tiempo Nubes Presión Cambiar Bruto
VFR 5°C / -1°C 300º 10kt >10km - Broken Clouds 4400ft 1017 No Significant change. Runway 30: Clear and dry, 1-10% contamination with <1mm, friction coefficient 0.70. UUOO 191500Z 30005MPS 9999 BKN044 05/M01 Q1017 R30/010070 NOSIG RMK QFE749
MVFR 5°C / 0°C 290º 12kt >10km - Broken Clouds 2700ft 1017 No Significant change. Runway 30: Clear and dry, 1-10% contamination with <1mm, friction coefficient 0.70. UUOO 191430Z 29006MPS 9999 BKN027 05/M00 Q1017 R30/010070 NOSIG RMK QFE749
VFR 5°C / 0°C 290º 10kt >10km - Broken Clouds 3900ft 1017 No Significant change. Runway 30: Clear and dry, 1-10% contamination with <1mm, friction coefficient 0.70. UUOO 191400Z 29005MPS 9999 BKN039 05/00 Q1017 R30/010070 NOSIG RMK QFE749
VFR 5°C / 0°C 300º 14kt >10km - Broken Clouds 3400ft 1017 No Significant change. Runway 30: Clear and dry, 1-10% contamination with <1mm, friction coefficient 0.70. UUOO 191330Z 30007MPS 9999 BKN034 05/M00 Q1017 R30/010070 NOSIG RMK QFE749
MVFR 6°C / -1°C 290º 14kt >10km - Broken Clouds 2800ft 1016 No Significant change. Runway 30: Clear and dry, 1-10% contamination with <1mm, friction coefficient 0.70. UUOO 191300Z 29007MPS 9999 BKN028 06/M01 Q1016 R30/010070 NOSIG RMK QFE749
VFR 6°C / -1°C 300º 14kt >10km - Broken Clouds 4700ft 1016 No Significant change. Runway 30: Clear and dry, 1-10% contamination with <1mm, friction coefficient 0.70. UUOO 191230Z 30007MPS 9999 BKN047 06/M01 Q1016 R30/010070 NOSIG RMK QFE748
VFR 6°C / -1°C 290º 12kt >10km - Broken Clouds 3300ft 1016 No Significant change. Runway 30: Clear and dry, 1-10% contamination with <1mm, friction coefficient 0.70. UUOO 191200Z 29006MPS 9999 BKN033 06/M01 Q1016 R30/010070 NOSIG RMK QFE748
VFR 6°C / -2°C 300º 14kt >10km - Broken Clouds 3900ft 1016 No Significant change. Runway 30: Clear and dry, 1-10% contamination with <1mm, friction coefficient 0.70. UUOO 191130Z 30007MPS 9999 BKN039 06/M02 Q1016 R30/010070 NOSIG RMK QFE748
VFR 8°C / -1°C 270º 10kt >10km - Broken Clouds 3400ft 1015 No Significant change. Runway 30: Damp, 51-100% contamination with <1mm, friction coefficient 0.65. UUOO 191100Z 27005MPS 9999 BKN034 08/M01 Q1015 R30/190065 NOSIG RMK QFE748
VFR 6°C / 0°C 300º 12kt >10km - Broken Clouds 4600ft 1016 No Significant change. Runway 30: Damp, 51-100% contamination with <1mm, friction coefficient 0.65. UUOO 191030Z 30006MPS 9999 BKN046 06/00 Q1016 R30/190065 NOSIG RMK QFE748
MVFR 7°C / 0°C 290º 10kt >10km - Broken Clouds 2200ft 1015 No Significant change. Runway 30: Damp, 51-100% contamination with <1mm, friction coefficient 0.65. UUOO 191000Z 29005MPS 9999 BKN022 07/00 Q1015 R30/190065 NOSIG RMK QFE748
MVFR 7°C / 0°C 300º 12kt >10km - Broken Clouds 2900ft 1015 No Significant change. Runway 30: Damp, 51-100% contamination with <1mm, friction coefficient 0.65. UUOO 190930Z 30006MPS 9999 BKN029 07/00 Q1015 R30/190065 NOSIG RMK QFE748
VFR 7°C / 1°C 290º 14kt >10km - Broken Clouds 4700ft 1015 No Significant change. Runway 30: Damp, 51-100% contamination with <1mm, friction coefficient 0.65. UUOO 190900Z 29007MPS 9999 BKN047 07/01 Q1015 R30/190065 NOSIG RMK QFE748
MVFR 7°C / 1°C 300º 10kt >10km - Broken Clouds 2600ft 1015 No Significant change. Runway 30: Damp, 51-100% contamination with <1mm, friction coefficient 0.65. UUOO 190830Z 30005MPS 9999 BKN026 07/01 Q1015 R30/190065 NOSIG RMK QFE748
MVFR 7°C / 1°C 300º 10kt >10km - Broken Clouds 2400ft 1015 No Significant change. Runway 30: Damp, 51-100% contamination with <1mm, friction coefficient 0.65. UUOO 190800Z 30005MPS 9999 BKN024 07/01 Q1015 R30/190065 NOSIG RMK QFE748
VFR 6°C / 2°C 300º 8kt >10km - Scattered Clouds 1300ft 1015 No Significant change. Runway 30: Damp, 51-100% contamination with <1mm, friction coefficient 0.65. UUOO 190730Z 30004MPS 9999 SCT013 06/02 Q1015 R30/190065 NOSIG RMK QFE748
VFR 5°C / 2°C 280º 10kt >10km - Clouds and Visibility OK 1015 No Significant change. Runway 30: Damp, 51-100% contamination with <1mm, friction coefficient 0.65. UUOO 190700Z 28005MPS CAVOK 05/02 Q1015 R30/190065 NOSIG RMK QFE748
VFR 5°C / 2°C 300º 10kt >10km - Clouds and Visibility OK 1015 No Significant change. Runway 30: Damp, 51-100% contamination with <1mm, friction coefficient 0.65. UUOO 190630Z 30005MPS CAVOK 05/02 Q1015 R30/190065 NOSIG RMK QFE748
VFR 4°C / 2°C 280º 8kt >10km - Scattered Clouds 4700ft 1015 No Significant change. Runway 30: Damp, 51-100% contamination with <1mm, friction coefficient 0.65. UUOO 190600Z 28004MPS 9999 SCT047 04/02 Q1015 R30/190065 NOSIG RMK QFE748
VFR 3°C / 2°C 280º 8kt >10km - Clouds and Visibility OK 1015 No Significant change. Runway 30: Damp, 51-100% contamination with <1mm, friction coefficient 0.65. UUOO 190530Z 28004MPS CAVOK 03/02 Q1015 R30/190065 NOSIG RMK QFE748
VFR 3°C / 2°C 270º 8kt >10km - Clouds and Visibility OK 1014 No Significant change. Runway 30: Damp, 51-100% contamination with <1mm, friction coefficient 0.65. UUOO 190500Z 27004MPS CAVOK 03/02 Q1014 R30/190065 NOSIG RMK QFE747
VFR 3°C / 2°C 270º 6kt >10km - Clouds and Visibility OK 1014 No Significant change. Runway 30: Wet or puddles, 51-100% contamination with 1mm, friction coefficient 0.50. UUOO 190430Z 27003MPS CAVOK 03/02 Q1014 R30/290150 NOSIG RMK QFE747
VFR 3°C / 2°C 260º 8kt >10km - Clouds and Visibility OK 1014 No Significant change. Runway 30: Wet or puddles, 51-100% contamination with 1mm, friction coefficient 0.50. UUOO 190400Z 26004MPS CAVOK 03/02 Q1014 R30/290150 NOSIG RMK QFE747
VFR 3°C / 2°C 270º 8kt >10km - Clouds and Visibility OK 1014 No Significant change. Runway 30: Wet or puddles, 51-100% contamination with 1mm, friction coefficient 0.50. UUOO 190330Z 27004MPS CAVOK 03/02 Q1014 R30/290150 NOSIG RMK QFE747

VFR

5°C / -1°C

[Más]
Viento 300º 10kt
Visibilidad >10km
Tiempo -
Nubes Broken Clouds 4400ft
Presión 1017
Cambiar No Significant change. Runway 30: Clear and dry, 1-10% contamination with <1mm, friction coefficient 0.70.
Bruto UUOO 191500Z 30005MPS 9999 BKN044 05/M01 Q1017 R30/010070 NOSIG RMK QFE749

MVFR

5°C / 0°C

[Más]
Viento 290º 12kt
Visibilidad >10km
Tiempo -
Nubes Broken Clouds 2700ft
Presión 1017
Cambiar No Significant change. Runway 30: Clear and dry, 1-10% contamination with <1mm, friction coefficient 0.70.
Bruto UUOO 191430Z 29006MPS 9999 BKN027 05/M00 Q1017 R30/010070 NOSIG RMK QFE749

VFR

5°C / 0°C

[Más]
Viento 290º 10kt
Visibilidad >10km
Tiempo -
Nubes Broken Clouds 3900ft
Presión 1017
Cambiar No Significant change. Runway 30: Clear and dry, 1-10% contamination with <1mm, friction coefficient 0.70.
Bruto UUOO 191400Z 29005MPS 9999 BKN039 05/00 Q1017 R30/010070 NOSIG RMK QFE749

VFR

5°C / 0°C

[Más]
Viento 300º 14kt
Visibilidad >10km
Tiempo -
Nubes Broken Clouds 3400ft
Presión 1017
Cambiar No Significant change. Runway 30: Clear and dry, 1-10% contamination with <1mm, friction coefficient 0.70.
Bruto UUOO 191330Z 30007MPS 9999 BKN034 05/M00 Q1017 R30/010070 NOSIG RMK QFE749

MVFR

6°C / -1°C

[Más]
Viento 290º 14kt
Visibilidad >10km
Tiempo -
Nubes Broken Clouds 2800ft
Presión 1016
Cambiar No Significant change. Runway 30: Clear and dry, 1-10% contamination with <1mm, friction coefficient 0.70.
Bruto UUOO 191300Z 29007MPS 9999 BKN028 06/M01 Q1016 R30/010070 NOSIG RMK QFE749

VFR

6°C / -1°C

[Más]
Viento 300º 14kt
Visibilidad >10km
Tiempo -
Nubes Broken Clouds 4700ft
Presión 1016
Cambiar No Significant change. Runway 30: Clear and dry, 1-10% contamination with <1mm, friction coefficient 0.70.
Bruto UUOO 191230Z 30007MPS 9999 BKN047 06/M01 Q1016 R30/010070 NOSIG RMK QFE748

VFR

6°C / -1°C

[Más]
Viento 290º 12kt
Visibilidad >10km
Tiempo -
Nubes Broken Clouds 3300ft
Presión 1016
Cambiar No Significant change. Runway 30: Clear and dry, 1-10% contamination with <1mm, friction coefficient 0.70.
Bruto UUOO 191200Z 29006MPS 9999 BKN033 06/M01 Q1016 R30/010070 NOSIG RMK QFE748

VFR

6°C / -2°C

[Más]
Viento 300º 14kt
Visibilidad >10km
Tiempo -
Nubes Broken Clouds 3900ft
Presión 1016
Cambiar No Significant change. Runway 30: Clear and dry, 1-10% contamination with <1mm, friction coefficient 0.70.
Bruto UUOO 191130Z 30007MPS 9999 BKN039 06/M02 Q1016 R30/010070 NOSIG RMK QFE748

VFR

8°C / -1°C

[Más]
Viento 270º 10kt
Visibilidad >10km
Tiempo -
Nubes Broken Clouds 3400ft
Presión 1015
Cambiar No Significant change. Runway 30: Damp, 51-100% contamination with <1mm, friction coefficient 0.65.
Bruto UUOO 191100Z 27005MPS 9999 BKN034 08/M01 Q1015 R30/190065 NOSIG RMK QFE748

VFR

6°C / 0°C

[Más]
Viento 300º 12kt
Visibilidad >10km
Tiempo -
Nubes Broken Clouds 4600ft
Presión 1016
Cambiar No Significant change. Runway 30: Damp, 51-100% contamination with <1mm, friction coefficient 0.65.
Bruto UUOO 191030Z 30006MPS 9999 BKN046 06/00 Q1016 R30/190065 NOSIG RMK QFE748

MVFR

7°C / 0°C

[Más]
Viento 290º 10kt
Visibilidad >10km
Tiempo -
Nubes Broken Clouds 2200ft
Presión 1015
Cambiar No Significant change. Runway 30: Damp, 51-100% contamination with <1mm, friction coefficient 0.65.
Bruto UUOO 191000Z 29005MPS 9999 BKN022 07/00 Q1015 R30/190065 NOSIG RMK QFE748

MVFR

7°C / 0°C

[Más]
Viento 300º 12kt
Visibilidad >10km
Tiempo -
Nubes Broken Clouds 2900ft
Presión 1015
Cambiar No Significant change. Runway 30: Damp, 51-100% contamination with <1mm, friction coefficient 0.65.
Bruto UUOO 190930Z 30006MPS 9999 BKN029 07/00 Q1015 R30/190065 NOSIG RMK QFE748

VFR

7°C / 1°C

[Más]
Viento 290º 14kt
Visibilidad >10km
Tiempo -
Nubes Broken Clouds 4700ft
Presión 1015
Cambiar No Significant change. Runway 30: Damp, 51-100% contamination with <1mm, friction coefficient 0.65.
Bruto UUOO 190900Z 29007MPS 9999 BKN047 07/01 Q1015 R30/190065 NOSIG RMK QFE748

MVFR

7°C / 1°C

[Más]
Viento 300º 10kt
Visibilidad >10km
Tiempo -
Nubes Broken Clouds 2600ft
Presión 1015
Cambiar No Significant change. Runway 30: Damp, 51-100% contamination with <1mm, friction coefficient 0.65.
Bruto UUOO 190830Z 30005MPS 9999 BKN026 07/01 Q1015 R30/190065 NOSIG RMK QFE748

MVFR

7°C / 1°C

[Más]
Viento 300º 10kt
Visibilidad >10km
Tiempo -
Nubes Broken Clouds 2400ft
Presión 1015
Cambiar No Significant change. Runway 30: Damp, 51-100% contamination with <1mm, friction coefficient 0.65.
Bruto UUOO 190800Z 30005MPS 9999 BKN024 07/01 Q1015 R30/190065 NOSIG RMK QFE748

VFR

6°C / 2°C

[Más]
Viento 300º 8kt
Visibilidad >10km
Tiempo -
Nubes Scattered Clouds 1300ft
Presión 1015
Cambiar No Significant change. Runway 30: Damp, 51-100% contamination with <1mm, friction coefficient 0.65.
Bruto UUOO 190730Z 30004MPS 9999 SCT013 06/02 Q1015 R30/190065 NOSIG RMK QFE748

VFR

5°C / 2°C

[Más]
Viento 280º 10kt
Visibilidad >10km
Tiempo -
Nubes Clouds and Visibility OK
Presión 1015
Cambiar No Significant change. Runway 30: Damp, 51-100% contamination with <1mm, friction coefficient 0.65.
Bruto UUOO 190700Z 28005MPS CAVOK 05/02 Q1015 R30/190065 NOSIG RMK QFE748

VFR

5°C / 2°C

[Más]
Viento 300º 10kt
Visibilidad >10km
Tiempo -
Nubes Clouds and Visibility OK
Presión 1015
Cambiar No Significant change. Runway 30: Damp, 51-100% contamination with <1mm, friction coefficient 0.65.
Bruto UUOO 190630Z 30005MPS CAVOK 05/02 Q1015 R30/190065 NOSIG RMK QFE748

VFR

4°C / 2°C

[Más]
Viento 280º 8kt
Visibilidad >10km
Tiempo -
Nubes Scattered Clouds 4700ft
Presión 1015
Cambiar No Significant change. Runway 30: Damp, 51-100% contamination with <1mm, friction coefficient 0.65.
Bruto UUOO 190600Z 28004MPS 9999 SCT047 04/02 Q1015 R30/190065 NOSIG RMK QFE748

VFR

3°C / 2°C

[Más]
Viento 280º 8kt
Visibilidad >10km
Tiempo -
Nubes Clouds and Visibility OK
Presión 1015
Cambiar No Significant change. Runway 30: Damp, 51-100% contamination with <1mm, friction coefficient 0.65.
Bruto UUOO 190530Z 28004MPS CAVOK 03/02 Q1015 R30/190065 NOSIG RMK QFE748

VFR

3°C / 2°C

[Más]
Viento 270º 8kt
Visibilidad >10km
Tiempo -
Nubes Clouds and Visibility OK
Presión 1014
Cambiar No Significant change. Runway 30: Damp, 51-100% contamination with <1mm, friction coefficient 0.65.
Bruto UUOO 190500Z 27004MPS CAVOK 03/02 Q1014 R30/190065 NOSIG RMK QFE747

VFR

3°C / 2°C

[Más]
Viento 270º 6kt
Visibilidad >10km
Tiempo -
Nubes Clouds and Visibility OK
Presión 1014
Cambiar No Significant change. Runway 30: Wet or puddles, 51-100% contamination with 1mm, friction coefficient 0.50.
Bruto UUOO 190430Z 27003MPS CAVOK 03/02 Q1014 R30/290150 NOSIG RMK QFE747

VFR

3°C / 2°C

[Más]
Viento 260º 8kt
Visibilidad >10km
Tiempo -
Nubes Clouds and Visibility OK
Presión 1014
Cambiar No Significant change. Runway 30: Wet or puddles, 51-100% contamination with 1mm, friction coefficient 0.50.
Bruto UUOO 190400Z 26004MPS CAVOK 03/02 Q1014 R30/290150 NOSIG RMK QFE747

VFR

3°C / 2°C

[Más]
Viento 270º 8kt
Visibilidad >10km
Tiempo -
Nubes Clouds and Visibility OK
Presión 1014
Cambiar No Significant change. Runway 30: Wet or puddles, 51-100% contamination with 1mm, friction coefficient 0.50.
Bruto UUOO 190330Z 27004MPS CAVOK 03/02 Q1014 R30/290150 NOSIG RMK QFE747

TAF a 51.82°N 39.23°E (UUOO)

From till


From till Wind 310º 10kt. Visibility 10km or more. Broken Clouds 1600ft.

Bruto: TAF UUOO 191400Z 1915/1924 31005MPS 9999 BKN016

Imágenes actuales de satélite y lluvia para 51.82°N 39.23°E

El marcador de lugar se coloca en 51.82°N 39.23°E. [Más]

La imagen de satélite en tiempo real se aprovecha de la combinación de bandas de la luz visible y de la luz infrarrojo. Como se puede detectar cambios de temperaturas atreves de la banda infrarrojo, la imagen no está escura de noche. No obstante, la niebla y las nubes bajas son apenas visibles en las imágenes infrarrojo como las diferencias de temperaturas entre el suelo y la niebla son muy pequeñas. Por eso son casi invisibles durante la noche. Las imágenes de satélite del Meteosat (Europa) son actualizados en tiempo real cada 5 minutos. Las imágenes del GOES-16/GOES-17 (América del Norte y América del Sur) y Himawari (Asia) son actualizados cada 10 minutos.

Copyright 2021 EUMETSAT / meteoblue. / Copyright 2021 meteoblue

Radar y precipitación nowcast para 51.82°N 39.23°E

llovizna
Leve
Moderado
Fuerte
Muy fuerte
Granizo

El marcador de lugar se coloca en 51.82°N 39.23°E. Esta animación muestra lo radar de precipitaciones hasta la última hora, así como la 1h previsión. Las lloviznas o las nevadas ligeras pueden ser invisibles para el radar. La intensidad de la precipitación está codificada por colores, que van del azul claro al naranja.